TIBA-1

Last updated on Sun Oct 06 2024 00:02:41 GMT+0000 (Coordinated Universal Time)

1 44800U 19080A 24279.54793045 .00000166 00000+0 00000+0 0 9996 2 44800 0.0632 9.5736 0002225 183.9367 53.9836 1.00269947 17849
UTC large
Height (km)
Speed (km/s)
/
Latitude / Longitude
Inclination (degrees)
Orbital Period (minutes)
Azimuth
Elevation
Range (km)
Doppler Factor

Next 0 passes for location: London (51.5072 / 0.1276)

Sorry there are no passes over London.